Vorticity
nan nan nan nan nan nan nan nan nan nan nan nan nan nan nan nan nan nan nan nan nan nan nan nan nan nan nan nan nan nan nan nan nan nan nan nan nan nan nan nan nan nan nan nan nan nan nan nan nan nan nan nan nan nan nan nan nan nan nan nan nan nan nan nan nan nan nan nan nan nan nan nan nan nan nan nan nan nan nan nan nan nan nan nan nan nan
nan 10 11 11 9 8 11 11 8 7 8 7 7 8 10 9 10 11 11 10 9 8 9 11 12 12 13 14 14 11 6 5 5 5 5 5 6 6 6 6 6 6 6 6 6 6 6 6 6 6 6 6 6 6 7 8 9 11 14 18 19 20 20 19 18 16 14 12 11 9 8 7 6 6 5 5 5 6 6 6 7 7 8 8 8 nan
nan 8 9 9 8 8 10 11 9 9 9 8 9 10 10 9 8 9 10 11 10 9 9 10 11 11 12 15 16 12 7 6 6 6 6 5 6 6 6 7 7 7 6 6 6 6 6 6 6 6 6 6 6 6 6 6 7 8 9 12 14 17 19 20 21 19 17 14 12 10 9 8 7 6 6 5 5 5 6 6 7 7 8 8 9 nan
nan 9 8 7 8 9 11 11 10 9 9 10 10 10 9 8 8 9 11 12 11 10 10 11 10 8 10 14 17 15 10 6 6 6 6 6 6 6 6 7 7 7 7 7 7 7 7 7 7 7 7 7 7 6 6 6 6 7 7 8 9 11 12 14 15 14 13 12 11 10 9 9 8 7 6 6 6 6 6 7 7 8 8 9 9 nan
nan 10 9 7 8 9 11 11 10 9 8 8 9 8 7 8 8 9 12 13 12 11 10 10 9 8 9 14 19 19 12 7 6 6 6 6 6 6 6 7 7 7 7 7 7 7 7 7 7 8 8 8 8 7 7 7 7 7 7 7 7 7 8 8 9 9 9 9 9 10 9 9 9 8 8 7 6 6 6 7 7 8 9 9 9 nan
nan 9 8 7 8 8 11 11 10 7 6 6 6 7 7 8 10 11 12 12 11 10 10 10 10 10 10 16 21 19 13 9 7 7 6 6 6 6 6 6 6 6 6 6 6 6 7 7 7 8 8 8 9 9 8 8 8 7 7 7 7 7 6 6 7 7 7 8 8 9 9 9 9 9 8 8 7 7 7 7 8 8 9 9 9 nan
nan 8 7 7 8 9 12 13 11 7 5 5 5 5 6 8 10 11 12 12 11 10 9 10 11 11 12 16 19 16 12 9 7 6 6 6 5 5 6 6 6 6 6 6 6 6 6 6 7 7 8 8 9 9 9 9 9 8 8 8 8 7 7 6 6 6 7 7 8 8 8 8 8 8 8 8 8 7 7 7 8 9 9 9 9 nan
nan 7 6 7 8 9 11 13 12 9 8 7 6 5 6 7 8 9 10 11 12 11 9 9 9 10 12 14 14 12 10 8 6 6 6 5 4 4 6 6 6 6 6 6 5 5 5 5 6 6 7 7 8 8 9 9 9 9 9 9 9 9 8 7 7 6 7 7 7 7 7 6 7 7 7 7 8 8 8 8 8 9 9 9 9 nan
nan 7 7 7 8 8 9 11 11 11 10 9 9 8 7 6 6 6 8 9 10 11 11 10 9 9 10 12 12 12 11 8 8 9 8 8 8 9 10 7 5 5 6 5 5 5 5 5 5 5 6 6 7 7 8 8 9 10 10 10 10 10 9 9 8 8 8 8 8 7 7 6 6 6 6 6 7 7 7 7 8 9 9 9 9 nan
nan 8 6 7 8 9 10 10 10 11 11 10 10 10 10 9 7 6 6 6 8 11 13 12 10 8 8 10 12 13 13 12 12 11 11 12 12 13 11 8 7 9 8 6 5 5 5 5 5 5 5 6 6 6 7 7 8 9 10 10 11 11 11 10 9 9 9 9 9 8 8 7 7 6 6 5 6 5 6 6 6 7 9 10 9 nan
nan 8 6 6 7 9 12 12 11 12 11 8 9 10 11 11 10 10 7 5 6 9 10 10 10 10 9 9 10 11 10 11 13 12 11 10 10 9 7 7 9 11 8 6 6 6 5 5 5 5 5 6 6 6 6 6 7 8 9 10 10 11 11 11 10 10 10 10 9 9 9 8 8 7 6 5 5 5 5 5 5 7 9 11 11 nan
nan 7 8 8 7 8 9 10 12 13 10 6 6 8 10 11 11 13 11 8 7 7 5 4 7 10 12 12 10 9 8 9 10 9 9 8 7 5 4 6 8 7 5 6 5 5 6 6 5 5 6 6 6 6 5 6 7 7 8 8 9 10 11 11 11 10 10 10 10 9 9 9 8 8 7 6 6 5 4 4 5 7 9 12 14 nan
nan 9 10 10 9 7 7 8 10 10 9 8 8 9 9 9 10 11 13 12 9 7 5 4 5 7 10 13 13 11 9 8 9 8 8 6 6 6 7 7 6 6 6 5 6 10 13 9 5 5 6 6 6 6 6 7 7 7 7 7 8 9 10 10 11 11 10 10 10 10 9 9 9 8 8 8 7 6 5 5 5 7 10 13 15 nan
nan 9 10 10 9 8 8 9 9 9 8 8 9 10 11 12 11 10 11 12 10 9 9 7 5 6 8 10 13 15 13 8 8 8 7 6 7 9 10 9 8 7 7 7 8 11 13 11 8 8 7 5 5 6 6 7 8 7 7 7 7 7 8 9 10 11 11 11 10 10 10 10 10 9 9 9 8 7 6 5 5 7 9 12 14 nan
nan 9 8 8 8 9 9 10 9 9 8 7 9 10 12 13 12 10 9 9 8 8 8 7 5 6 7 9 11 16 15 10 8 7 6 4 6 10 12 10 8 7 8 9 7 6 7 9 9 9 8 7 7 8 9 8 9 8 7 7 7 7 7 8 9 10 12 12 12 11 11 10 10 10 10 10 9 8 7 6 6 6 8 10 11 nan
nan 9 9 8 7 7 9 10 10 10 10 10 10 10 10 10 10 9 8 8 7 7 7 5 3 4 6 9 10 14 14 12 9 9 6 3 4 7 12 13 8 7 8 8 7 5 5 8 10 10 11 13 12 12 9 8 9 8 7 7 7 7 7 7 8 9 11 12 12 12 11 10 10 10 10 10 9 8 7 6 6 6 7 8 9 nan
nan 8 9 9 8 8 9 10 10 11 11 10 10 10 10 10 9 9 8 7 7 8 9 7 5 4 5 7 10 12 13 12 11 10 7 4 2 5 12 16 11 7 7 7 7 6 7 8 9 10 14 16 13 10 8 8 8 7 7 7 7 7 7 7 7 8 10 11 12 12 11 10 9 9 9 9 8 8 7 6 6 6 7 7 7 nan
nan 8 9 9 9 9 10 9 9 10 11 11 10 9 10 10 10 10 8 8 8 9 9 7 5 5 7 9 12 13 11 11 12 10 7 5 2 3 11 16 14 10 8 7 6 7 9 9 9 10 16 17 12 9 8 8 8 8 7 8 8 8 8 7 7 8 9 10 11 11 10 9 8 8 8 8 8 8 7 7 6 6 6 7 7 nan
nan 8 8 8 9 10 11 10 9 9 9 10 10 10 9 9 10 9 9 9 9 9 9 7 6 6 7 12 15 15 11 10 11 10 8 6 3 3 10 16 14 11 9 7 6 6 8 11 14 15 15 13 10 8 8 8 8 8 8 8 8 8 9 9 8 8 8 9 10 11 10 8 8 7 7 7 8 8 7 7 7 6 7 7 7 nan
nan 9 7 8 10 11 10 11 11 10 10 10 10 9 9 10 9 8 9 10 9 7 8 9 8 7 9 13 16 15 12 9 9 9 9 7 5 3 10 15 12 9 7 6 6 7 9 12 16 20 17 12 10 8 8 8 9 9 8 8 8 9 9 10 9 9 8 9 9 9 9 8 7 7 7 7 8 8 7 7 6 6 7 7 7 nan
nan 10 9 9 10 9 11 13 14 13 12 10 8 7 8 10 10 9 9 10 10 9 9 9 9 7 10 14 17 16 11 6 6 5 7 8 6 6 10 13 13 11 8 5 5 7 10 11 13 19 21 16 11 8 7 8 9 9 8 8 8 9 10 10 10 10 9 9 8 8 8 7 7 7 7 8 8 8 8 7 7 7 7 7 7 nan
nan 12 12 11 9 9 13 16 17 15 11 7 5 5 8 10 10 9 9 10 11 11 10 9 9 9 12 17 19 18 10 4 4 4 7 9 7 6 8 12 13 12 9 6 6 7 10 11 12 18 23 17 10 7 7 8 9 9 8 8 8 9 10 11 11 11 10 9 8 8 7 7 7 7 7 8 8 8 8 8 7 7 7 7 7 nan
nan 13 13 11 9 11 15 16 16 15 11 6 4 4 10 13 12 11 10 10 10 9 10 11 12 11 14 18 19 17 10 5 6 8 10 10 8 7 8 11 11 10 9 8 8 9 10 10 11 14 23 21 10 7 8 8 9 9 9 8 8 9 10 11 12 12 11 10 9 8 8 8 7 8 8 8 9 9 8 8 8 8 7 7 7 nan
nan 14 13 11 10 12 15 15 14 13 10 7 7 9 12 14 14 15 15 14 12 11 10 10 9 10 13 16 15 13 9 7 8 9 10 11 11 11 11 11 10 9 7 8 9 10 10 9 8 8 21 26 16 10 8 8 9 9 9 9 9 9 10 11 12 12 12 11 10 9 8 8 8 8 8 8 9 9 9 8 8 8 8 8 8 nan
nan 15 14 15 15 15 16 17 15 13 9 8 8 10 12 13 13 13 15 15 14 13 11 8 7 7 11 12 10 9 6 6 11 12 10 10 11 13 13 11 10 9 7 7 10 11 11 8 6 6 16 25 23 16 9 8 9 9 9 9 9 9 10 11 11 12 12 11 10 9 9 8 8 8 8 8 9 9 9 8 8 8 7 8 8 nan
nan 18 18 19 20 19 18 17 16 13 6 3 6 9 10 10 9 8 9 11 11 10 8 5 5 5 9 10 11 10 6 4 10 13 13 12 11 11 11 11 11 10 9 8 10 12 11 8 6 7 12 20 24 21 14 10 9 10 10 9 10 10 10 10 11 11 11 11 10 9 9 8 8 8 8 8 8 8 8 8 7 7 7 7 7 nan
nan 18 18 18 18 18 17 17 16 13 5 1 4 5 6 6 7 7 6 8 9 8 5 4 4 6 8 11 12 12 9 5 6 10 14 13 11 10 10 11 11 10 8 8 10 12 11 9 8 8 8 11 17 26 24 14 11 10 9 9 10 10 10 10 10 11 11 10 9 9 9 8 8 8 8 7 7 7 7 7 7 6 5 4 4 nan
nan 14 14 15 16 17 17 17 15 12 8 6 4 -1 -5 -0 5 6 7 9 9 7 5 5 5 7 9 10 10 11 11 8 6 8 11 11 11 11 11 10 10 10 7 7 8 10 10 10 10 10 9 9 12 21 28 22 15 11 10 9 9 9 9 9 9 10 10 9 9 9 9 8 8 8 8 8 7 7 7 7 5 3 2 1 3 nan
nan 11 12 14 15 15 15 15 15 15 12 8 2 -8 -11 -3 5 8 10 10 9 8 7 6 6 7 10 10 10 11 11 10 9 9 10 9 9 12 12 10 9 9 7 5 6 7 8 11 11 11 12 11 11 13 23 26 20 16 15 13 10 9 9 9 9 9 9 9 9 9 9 9 8 8 8 8 8 8 7 6 3 -0 -0 4 6 nan
nan 9 10 11 11 11 10 13 18 21 18 9 0 -9 -10 -1 7 12 14 11 9 8 8 7 7 7 8 9 8 9 11 13 12 11 9 8 9 11 12 11 9 8 6 5 6 7 8 10 11 11 13 13 11 9 14 20 19 19 21 20 15 13 11 9 8 9 9 9 9 9 9 9 9 9 9 9 8 8 8 4 1 -1 2 7 8 nan
nan 8 8 9 9 9 10 13 16 21 20 11 1 -5 -3 4 10 13 14 11 9 8 8 9 9 9 7 6 6 7 12 16 14 11 7 8 9 13 12 9 8 6 6 8 9 9 10 10 10 11 13 13 12 10 10 12 14 16 18 20 20 22 18 12 10 10 10 10 9 9 9 9 9 9 9 9 9 8 7 3 -1 -0 4 8 8 nan
nan 8 8 10 10 11 12 12 13 16 16 12 7 6 7 10 12 13 12 11 9 9 9 10 11 10 8 5 6 7 12 18 18 12 6 5 9 14 14 10 8 4 6 11 13 12 12 11 11 10 11 12 11 11 11 11 12 13 14 14 17 26 23 14 12 11 14 14 12 10 9 9 9 9 9 9 9 9 8 4 -1 -2 5 9 9 nan
nan 9 10 11 10 11 11 12 12 12 12 11 11 12 13 14 14 13 12 11 11 10 11 11 11 10 9 7 6 7 11 19 23 16 4 0 8 13 15 12 8 4 4 9 13 13 13 13 13 11 10 10 10 10 10 11 11 12 12 11 12 20 20 12 10 12 15 16 15 14 12 10 9 8 9 9 9 9 9 6 1 -1 2 6 10 nan
nan 9 9 9 9 10 11 11 11 11 10 10 11 11 12 14 15 14 12 12 14 14 14 13 12 10 8 6 6 6 10 20 25 17 1 -3 7 13 15 12 9 5 3 5 9 10 12 14 13 12 12 11 9 9 9 10 10 11 11 11 11 13 12 10 9 10 11 11 12 13 14 15 15 13 11 10 9 9 9 7 5 2 -1 2 7 nan
nan 8 8 8 9 9 9 10 10 10 9 9 9 10 11 11 12 12 12 12 13 15 17 17 16 14 11 7 6 6 10 21 25 15 0 -3 5 11 15 13 10 7 4 4 6 8 11 14 14 13 12 11 9 8 7 9 10 11 12 13 11 10 10 9 10 9 8 8 8 8 10 13 15 17 16 14 12 11 9 8 6 5 2 0 1 nan
nan 9 8 8 9 9 9 8 8 7 7 7 8 10 11 10 10 11 10 11 11 12 13 15 16 18 18 16 12 10 14 22 24 15 1 -2 4 8 12 14 13 9 5 4 6 8 11 14 14 13 10 8 8 9 8 9 10 11 12 11 10 10 10 10 10 10 10 8 7 7 8 10 11 13 17 18 15 12 10 8 7 7 5 2 0 nan
nan 9 8 8 9 9 8 7 7 7 6 7 8 10 11 11 11 11 10 11 12 12 11 10 12 14 20 23 20 19 21 23 21 16 6 0 3 6 11 16 16 10 6 5 6 7 10 13 13 10 6 6 8 10 11 10 9 9 9 9 9 9 9 10 11 11 11 10 9 8 9 10 10 10 15 19 17 16 15 12 10 11 10 7 5 nan
nan 9 8 8 8 9 8 8 8 8 8 9 10 10 10 11 12 12 11 11 12 13 11 10 9 9 15 21 22 24 26 25 21 17 10 4 5 7 11 15 16 12 8 9 8 7 8 10 10 8 5 6 9 12 14 13 10 7 7 7 8 9 9 10 11 10 11 11 10 10 9 9 9 10 11 14 15 16 15 14 15 20 21 18 17 nan
nan 9 9 8 8 8 8 9 9 9 10 11 11 11 10 10 10 10 11 11 11 12 13 13 11 8 8 13 16 19 21 21 20 18 12 7 6 9 12 14 14 10 9 10 11 11 10 9 9 9 7 7 10 12 15 14 11 9 7 6 6 7 10 12 12 11 11 11 11 9 7 8 10 11 10 11 12 12 11 10 12 16 19 20 24 nan
nan 9 10 9 8 9 12 12 11 11 11 11 10 9 8 7 6 7 9 10 10 10 10 11 10 8 7 7 8 10 13 14 13 14 12 11 11 13 14 14 12 10 8 8 12 13 11 10 12 13 11 10 12 13 13 13 11 11 8 4 6 8 10 11 11 11 11 12 11 9 7 8 10 11 10 10 10 10 10 9 9 10 12 13 16 nan
nan 9 9 9 9 10 11 13 13 13 12 10 8 7 7 6 6 6 7 7 8 8 6 5 5 5 6 6 6 6 8 10 10 12 14 15 16 16 15 14 12 11 8 7 9 11 11 12 12 11 9 11 13 14 14 15 15 12 4 2 7 11 14 12 10 10 11 11 11 11 9 8 9 10 10 9 8 9 10 10 9 8 8 11 13 nan
nan 7 9 9 10 9 11 13 13 12 10 9 9 9 8 7 8 8 8 7 7 8 8 6 5 4 4 4 4 5 6 8 10 12 16 17 17 17 15 13 12 11 9 8 8 9 11 13 12 10 8 9 9 11 14 17 16 13 5 3 7 10 12 12 10 11 12 10 10 13 10 7 9 10 11 9 8 9 11 12 11 9 7 8 10 nan
nan 9 10 11 12 12 13 10 9 7 8 8 9 9 9 9 10 10 9 8 10 9 8 8 9 8 6 4 4 4 4 7 9 11 15 18 19 18 16 14 12 11 9 8 7 7 10 12 12 11 11 9 9 11 14 15 13 12 10 8 5 4 6 11 12 13 12 10 9 10 10 9 10 12 11 10 9 10 12 13 13 12 9 8 9 nan
nan 11 12 12 11 11 9 8 8 8 8 8 9 8 9 11 11 9 8 10 11 9 7 8 9 10 9 7 6 6 5 6 8 10 13 17 21 21 19 16 12 11 10 8 7 6 8 10 10 11 11 11 11 11 13 14 12 10 11 10 6 3 6 12 15 14 11 9 9 9 10 11 11 11 10 9 9 10 11 12 11 12 12 11 11 nan
nan 11 11 10 10 10 9 9 10 10 10 10 9 9 10 11 10 9 10 11 10 9 8 9 8 7 7 9 8 7 7 7 7 8 7 9 15 19 20 17 15 12 11 10 10 9 8 8 10 11 12 13 13 13 12 12 12 12 12 9 6 3 8 14 17 15 11 9 8 8 10 11 11 9 8 8 7 8 10 12 11 10 10 10 11 nan
nan 12 10 9 11 12 10 8 8 9 10 10 9 9 10 10 11 12 12 10 9 9 8 9 10 9 9 9 8 8 8 8 7 7 7 6 8 12 17 18 17 16 13 12 12 13 12 12 12 11 9 10 11 13 13 12 11 11 13 11 6 3 7 13 15 15 13 10 8 8 10 11 10 9 8 7 7 7 10 13 12 10 9 9 10 nan
nan 11 9 9 10 10 10 10 10 10 10 9 9 9 9 10 11 12 12 10 9 9 9 9 12 14 13 10 9 9 9 7 6 6 8 9 10 11 12 13 14 15 15 14 13 15 15 15 14 11 9 9 9 10 12 13 12 12 12 10 8 6 6 9 12 14 13 11 10 9 9 10 10 9 9 7 7 8 10 12 13 12 11 10 10 nan
nan 9 9 9 9 9 10 10 10 10 9 9 9 9 10 11 11 8 8 10 10 10 8 8 11 13 13 11 11 12 11 8 7 6 6 7 9 9 9 9 9 9 11 11 11 12 13 13 13 12 11 11 11 12 12 11 12 12 12 11 9 7 8 10 12 13 13 14 13 11 8 7 9 10 10 7 7 8 10 11 12 12 12 12 11 nan
nan 10 9 9 9 9 9 10 10 10 10 9 9 9 12 14 12 5 6 10 10 9 9 9 9 10 10 11 12 12 11 9 8 8 7 7 8 9 8 8 8 7 6 6 7 9 11 11 12 12 11 11 13 15 14 11 11 11 12 11 10 8 9 11 14 13 12 12 13 11 8 7 9 13 13 9 7 6 8 10 11 12 13 13 12 nan
nan 11 10 9 9 9 10 10 10 10 10 10 8 8 10 11 10 9 10 11 10 10 11 11 10 9 10 11 11 11 9 8 9 9 8 8 10 11 10 9 9 7 6 6 8 10 11 11 11 13 12 10 11 13 14 12 10 10 10 10 10 10 10 12 14 14 11 11 11 11 8 7 9 13 14 12 8 7 8 10 12 12 13 14 13 nan
nan nan nan nan nan nan nan nan nan nan nan nan nan nan nan nan nan nan nan nan nan nan nan nan nan nan nan nan nan nan nan nan nan nan nan nan nan nan nan nan nan nan nan nan nan nan nan nan nan nan nan nan nan nan nan nan nan nan nan nan nan nan nan nan nan nan nan nan nan nan nan nan nan nan nan nan nan nan nan nan nan nan nan nan nan nan
CAPE
nan nan nan nan nan nan nan nan nan nan nan nan nan nan nan nan nan nan nan nan nan nan nan nan nan nan nan nan nan nan nan nan nan nan nan nan nan nan nan nan nan nan nan nan nan nan nan nan nan nan nan nan nan nan nan nan nan 1 5 10 10 16 23 25 25 21 16 11 5 5 2 0 nan nan nan nan nan nan nan nan nan nan nan nan nan nan
nan nan nan nan nan nan nan nan nan nan nan nan nan nan nan nan nan nan nan nan nan nan nan nan nan nan nan nan nan nan nan nan nan nan nan nan nan nan nan nan nan nan nan nan nan nan nan nan nan nan nan nan nan nan nan nan nan nan nan 0 0 6 12 18 18 21 16 19 10 10 3 nan nan nan nan nan nan nan nan nan nan nan nan nan nan nan
nan nan nan nan nan nan nan nan nan nan nan nan nan nan nan nan nan nan nan nan nan nan nan nan nan nan nan nan nan nan nan nan nan nan nan nan nan nan nan nan nan nan nan nan nan nan nan nan nan nan nan nan nan nan nan nan nan nan nan nan nan nan 0 4 4 7 9 8 5 5 1 nan nan nan nan nan nan nan nan nan nan nan nan nan nan nan
nan nan nan nan nan nan nan nan nan nan nan nan nan nan nan nan nan nan nan nan nan nan nan nan nan nan nan nan 1 1 nan nan nan nan nan nan nan nan nan nan nan nan nan nan nan nan nan nan nan nan nan nan nan nan nan nan nan nan nan nan nan nan nan nan nan nan nan nan nan nan nan nan nan nan nan nan nan nan nan nan nan nan nan nan nan nan
nan nan nan nan nan nan nan nan nan nan nan nan nan nan nan nan nan nan nan nan nan nan nan nan nan nan nan nan 1 1 1 0 nan nan nan nan nan nan nan nan nan nan nan nan nan nan nan nan nan nan nan nan nan nan nan nan nan nan nan nan nan nan nan nan nan nan nan nan nan nan nan nan nan nan nan nan nan nan nan nan nan nan nan nan nan nan
nan nan nan nan nan nan nan nan nan nan nan nan nan nan nan nan nan nan nan nan nan nan nan nan nan nan nan nan 1 1 1 0 nan nan nan nan nan nan nan nan nan nan nan nan nan nan nan nan nan nan nan nan nan nan nan nan nan nan nan nan nan nan nan nan nan nan nan nan nan nan nan nan nan nan nan nan nan nan nan nan nan nan nan nan nan nan
nan nan nan nan nan nan nan nan nan nan nan nan nan nan nan nan nan nan nan nan nan nan nan nan nan nan nan nan 2 2 1 1 nan nan nan nan nan nan nan nan nan nan nan nan nan nan nan nan nan nan nan nan nan nan nan nan nan nan nan nan nan nan nan nan nan nan nan nan nan nan nan nan nan nan nan nan nan nan nan nan nan nan nan nan nan nan
nan nan nan nan nan nan nan nan nan nan nan nan nan nan nan nan nan nan nan nan nan nan nan nan nan nan nan nan nan nan nan nan nan nan nan nan nan nan nan nan nan nan nan nan nan nan nan nan nan nan nan nan nan nan nan nan nan nan nan nan nan nan nan nan nan nan nan nan nan nan nan nan nan nan nan nan nan nan nan nan nan nan nan nan nan nan
nan nan nan nan nan nan nan nan nan nan nan nan nan nan nan nan nan nan nan nan nan nan nan nan nan nan nan nan nan nan nan nan nan nan nan nan nan nan nan nan nan nan nan nan nan nan nan nan nan nan nan nan nan nan nan nan nan nan nan nan nan nan nan nan nan nan nan nan nan nan nan nan nan nan nan nan nan nan nan nan nan nan nan nan nan nan
nan nan nan nan nan nan nan nan nan nan nan nan nan nan nan nan nan nan nan nan nan nan nan nan nan nan nan nan nan nan nan nan 0 0 nan nan nan nan nan nan nan nan nan nan nan nan nan nan nan nan nan nan nan nan nan nan nan nan nan nan nan nan nan nan nan nan nan nan nan nan nan nan nan nan nan nan nan nan nan nan nan nan nan nan nan nan
nan nan nan nan nan nan nan nan nan nan nan nan nan nan nan nan nan nan nan nan nan nan nan nan nan nan nan nan nan nan nan nan nan nan nan nan nan nan nan nan nan nan nan nan nan nan nan nan nan nan nan nan nan nan nan nan nan nan nan nan nan nan nan nan nan nan nan nan nan nan nan nan nan nan nan nan nan nan nan nan nan nan nan nan nan nan
nan nan nan nan nan nan nan nan nan nan nan nan nan nan nan nan nan nan nan nan nan nan nan nan nan nan nan nan nan nan nan nan nan nan nan nan nan nan nan nan nan nan nan nan nan nan nan nan nan nan nan nan nan nan nan nan nan nan nan nan nan nan nan nan nan nan nan nan nan nan nan nan nan nan nan nan nan nan nan nan nan nan nan nan nan nan
nan nan nan nan nan nan nan nan nan nan nan nan nan nan nan nan nan nan nan nan nan nan nan nan nan nan nan nan nan nan nan nan nan nan nan nan nan nan nan nan nan nan nan nan nan nan nan nan nan nan nan nan nan nan nan nan nan nan nan nan nan nan nan nan nan nan nan nan nan nan nan nan nan nan nan nan nan nan nan nan nan nan nan nan nan nan
nan nan nan nan nan nan nan nan nan nan nan nan nan nan nan nan nan nan nan nan nan nan nan nan nan nan nan nan nan nan nan nan nan nan nan nan nan nan nan nan nan nan nan nan nan nan nan nan nan nan nan nan nan nan nan nan nan nan nan nan nan nan nan nan nan nan nan nan nan nan nan nan nan nan nan nan nan nan nan nan nan nan nan nan nan 0
nan nan nan nan nan nan nan nan nan nan nan nan nan nan nan nan nan nan nan nan nan nan nan nan nan nan nan nan nan nan nan nan nan nan nan nan nan nan nan nan nan nan nan nan nan nan nan nan nan nan nan nan nan nan nan nan nan nan nan nan nan nan nan nan nan nan nan nan nan nan nan nan nan nan nan nan nan nan nan nan nan nan nan nan nan nan
nan nan nan nan nan nan nan nan nan nan nan nan nan nan nan nan nan nan nan nan nan nan nan nan nan nan nan nan nan nan nan nan nan nan nan nan nan nan nan nan nan nan nan nan nan nan nan nan nan nan nan nan nan nan nan nan nan nan nan nan nan nan nan nan nan nan nan nan 0 0 0 0 0 0 nan nan nan nan nan nan nan nan nan nan nan nan
nan nan nan nan nan nan nan nan nan nan nan nan nan nan nan nan nan nan nan nan nan nan nan nan nan nan nan nan nan nan nan nan nan nan nan nan nan nan nan nan nan nan nan nan nan nan nan nan nan nan nan nan nan nan nan nan nan nan nan nan nan nan nan nan nan nan nan 0 1 1 1 1 1 1 0 nan nan nan nan nan nan nan nan nan nan nan
nan nan nan nan nan nan nan nan nan nan nan nan nan nan nan nan nan nan nan nan nan nan nan nan nan nan nan nan nan nan nan nan nan nan nan nan nan nan nan nan nan nan nan nan nan nan nan nan nan nan nan nan nan nan nan nan nan nan nan nan nan nan nan nan nan nan 0 1 2 2 2 3 3 3 1 nan nan nan nan nan nan nan nan nan nan nan
nan nan nan nan nan nan nan nan nan nan nan nan nan nan nan nan nan nan nan nan nan nan nan nan nan nan nan nan nan nan nan nan nan nan nan nan nan nan nan nan nan nan nan nan nan nan nan nan nan nan nan nan nan nan nan nan nan nan 0 0 0 0 nan nan nan nan 1 3 4 4 3 4 4 4 2 0 nan nan nan nan nan nan nan nan nan nan
nan nan nan nan nan nan nan nan nan nan nan nan nan nan nan nan nan nan nan nan nan nan nan nan nan nan nan nan nan nan nan nan nan nan nan nan nan nan nan nan nan nan nan nan nan nan nan nan nan nan nan nan nan nan nan nan nan nan 0 1 1 1 0 0 0 0 2 3 5 5 5 5 5 5 3 1 nan nan nan nan nan nan nan nan nan nan
nan nan nan nan nan nan nan nan nan nan nan nan nan nan nan nan nan nan nan nan nan nan nan nan nan nan nan nan nan nan nan nan nan nan nan nan nan nan nan nan nan nan nan nan nan nan nan nan nan nan nan nan nan nan nan nan nan 0 1 2 2 2 1 0 0 1 3 4 5 5 5 6 5 5 4 2 0 0 nan nan nan nan nan nan nan nan
nan nan nan nan nan nan nan nan nan nan nan nan nan nan nan nan nan nan nan nan nan nan nan nan nan nan nan nan nan nan nan nan nan nan nan nan nan nan nan nan nan nan nan nan nan nan nan nan nan nan nan nan nan nan nan nan nan 0 2 3 3 2 1 1 1 2 3 4 5 5 5 5 5 5 4 2 1 1 nan nan nan nan nan nan nan nan
nan nan nan nan nan nan nan nan nan nan nan nan nan nan nan nan nan nan nan nan nan nan nan nan nan nan nan nan nan nan nan nan nan nan nan nan nan nan nan nan nan nan nan nan nan nan nan nan nan nan nan nan nan nan nan nan nan 1 2 4 4 3 1 2 2 3 4 4 4 4 5 5 5 5 4 3 1 1 0 nan nan nan nan nan nan nan
nan nan nan nan nan nan nan nan nan nan nan nan nan nan nan nan nan nan nan nan nan nan nan nan nan nan nan nan nan nan nan nan nan nan nan nan nan nan nan nan nan nan nan nan nan nan nan nan nan nan nan nan nan nan nan 0 0 2 3 4 4 3 2 3 3 4 4 4 4 4 5 5 5 5 4 3 2 2 1 0 0 nan nan nan nan nan
nan nan nan nan nan nan nan nan nan nan nan nan nan nan nan nan nan nan nan nan nan nan nan nan nan nan nan nan nan nan nan nan nan nan nan nan nan nan nan nan nan nan nan nan nan nan nan nan nan nan nan nan nan nan nan 0 0 3 5 4 4 3 3 4 4 5 4 4 4 4 4 5 5 5 5 3 3 3 3 1 1 nan nan nan nan nan
nan nan nan nan nan nan nan nan nan nan nan nan nan nan nan nan nan nan nan nan nan nan nan nan nan nan nan nan nan nan nan nan nan nan nan nan nan nan nan nan nan nan nan nan nan nan nan nan nan nan nan nan nan nan nan 1 1 4 5 5 5 4 4 5 5 6 5 5 5 5 5 5 5 5 5 3 3 3 3 2 2 0 nan nan nan nan
nan nan nan nan nan nan nan nan nan nan nan nan nan nan nan nan nan nan nan nan nan nan nan nan nan nan nan nan nan nan nan nan nan nan nan nan nan nan nan nan nan nan nan nan nan nan nan nan nan nan nan nan nan nan 0 2 2 5 6 5 5 5 5 6 6 7 5 5 6 6 6 5 6 6 5 4 4 4 3 2 2 1 1 0 0 nan
nan nan nan nan nan nan nan nan nan nan nan nan nan nan nan nan nan nan nan nan nan nan nan nan nan nan nan nan nan nan nan nan nan nan nan nan nan nan nan nan nan nan nan nan nan nan nan nan nan nan nan nan nan nan nan 4 4 7 7 5 5 5 7 7 7 7 5 5 6 6 5 6 5 5 5 4 3 3 3 2 2 2 0 nan nan nan
nan nan nan nan nan nan nan nan nan nan nan 0 nan nan nan nan nan nan nan nan nan nan nan nan nan nan nan nan nan nan nan nan nan nan nan nan nan nan nan nan nan nan nan nan nan nan nan nan nan nan nan nan nan nan nan 7 7 7 8 7 7 6 7 7 7 7 6 5 5 5 5 5 5 5 5 4 3 3 3 2 2 2 nan nan nan nan
nan nan nan nan nan nan nan nan nan nan 0 0 nan nan nan nan nan nan nan nan nan nan nan nan nan nan nan nan nan nan nan nan nan nan nan nan nan nan nan nan nan nan nan nan nan nan nan nan nan nan nan nan nan nan nan nan nan 1 2 9 9 8 7 7 7 7 6 5 5 5 5 5 5 5 4 4 3 3 3 3 3 nan nan nan nan nan
nan nan nan nan nan nan nan nan nan nan 1 1 0 0 nan nan nan nan nan nan nan nan nan nan nan nan nan nan nan nan nan nan nan nan nan nan nan nan nan nan nan nan nan nan nan nan nan nan nan nan nan nan nan nan nan nan nan nan nan 0 0 4 7 6 6 6 5 5 6 6 6 5 5 5 4 3 3 3 3 5 5 nan nan nan nan nan
nan nan nan nan nan nan nan nan nan nan nan nan nan nan nan nan nan nan nan nan nan nan nan nan nan nan nan nan nan nan nan nan nan nan nan nan nan nan nan nan nan nan nan nan nan nan nan nan nan nan nan nan nan nan nan nan nan nan nan nan nan nan 3 14 14 6 4 7 6 6 5 4 4 4 4 3 3 3 3 4 4 nan nan nan nan nan
nan nan nan nan nan nan nan nan nan nan nan nan nan nan nan nan nan nan nan nan nan nan nan nan nan nan nan nan nan nan nan nan nan nan nan nan nan nan nan nan nan nan nan nan nan nan nan nan nan nan nan nan nan nan nan nan nan nan nan nan nan nan nan nan nan nan nan nan nan nan 7 4 5 5 3 3 3 3 4 5 5 2 nan nan nan nan
nan nan nan nan nan nan nan nan nan nan nan nan nan nan nan nan nan nan nan nan nan nan nan nan nan nan nan nan nan nan nan nan nan nan nan nan nan nan nan nan nan nan nan nan nan nan nan nan nan nan nan nan nan nan nan nan nan nan nan nan nan nan nan nan nan nan nan nan nan nan nan nan 0 0 1 3 3 3 3 4 4 5 2 nan nan nan
nan nan nan nan nan nan nan nan nan nan nan nan nan nan nan nan nan nan nan nan nan nan nan nan nan nan nan nan nan nan nan nan nan nan nan nan nan nan nan nan nan nan nan nan nan nan nan nan nan nan nan nan nan nan nan nan nan nan nan nan nan nan nan nan nan nan nan nan nan nan nan nan nan nan nan nan 2 2 4 5 5 5 4 0 0 nan
nan nan nan nan nan nan nan nan nan nan nan nan nan nan nan nan nan nan nan nan nan nan nan nan nan nan nan nan nan nan nan nan nan nan nan nan nan nan nan nan nan nan nan nan nan nan nan nan nan nan nan nan nan nan nan nan nan nan nan nan nan nan nan nan nan nan nan nan nan nan nan nan nan nan nan nan 3 3 4 4 4 4 4 3 3 nan
nan nan nan nan nan nan nan nan nan nan nan nan nan nan nan nan nan nan nan nan nan nan nan nan nan nan nan nan nan nan nan nan nan nan nan nan nan nan nan nan nan nan nan nan nan nan nan nan nan nan nan nan nan nan nan nan nan nan nan nan nan nan nan nan nan nan nan nan nan nan nan nan nan nan nan nan nan nan 1 5 5 3 4 3 3 1
nan nan nan nan nan nan nan nan nan nan nan nan nan nan nan nan nan nan nan nan nan nan nan nan nan nan nan nan nan nan nan nan nan nan nan nan nan nan nan nan nan nan nan nan nan nan nan nan nan nan nan nan nan nan nan nan nan nan nan nan nan nan nan nan nan nan nan nan nan nan nan nan nan nan nan nan nan nan nan nan nan nan 1 nan nan 2
nan nan nan nan nan nan nan nan nan nan nan nan nan nan nan nan nan nan nan nan nan nan nan nan nan nan nan nan nan nan nan nan nan nan nan nan nan nan nan nan nan nan nan nan nan nan nan nan nan nan nan nan nan nan nan nan nan nan nan nan nan nan nan nan nan nan nan nan nan nan nan nan nan nan nan nan nan nan nan nan nan nan nan nan nan nan
nan nan nan nan nan nan nan nan nan nan nan nan nan nan nan nan nan nan nan nan nan nan nan nan nan nan nan nan nan nan nan nan nan nan nan nan nan nan nan nan nan nan nan nan nan nan nan nan nan nan nan nan nan nan nan nan nan nan nan nan nan nan nan nan nan nan nan nan nan nan nan nan nan nan nan nan nan nan nan nan nan nan nan nan nan nan
nan nan nan nan nan nan nan nan nan nan nan nan nan nan nan nan nan nan nan nan nan nan nan nan nan nan nan nan nan nan nan nan nan nan nan nan nan nan nan nan nan nan nan nan nan nan nan nan nan nan nan nan nan nan nan nan nan nan nan nan nan nan nan nan nan nan nan nan nan nan nan nan nan nan nan nan nan nan nan nan nan nan nan nan nan nan
nan nan nan nan nan nan nan nan nan nan nan nan nan nan nan nan nan nan nan nan nan nan nan nan nan nan nan nan nan nan nan nan nan nan nan nan nan nan nan nan nan nan nan nan nan nan nan nan nan nan nan nan nan nan nan nan nan nan nan nan nan nan nan nan nan nan nan nan nan nan nan nan nan nan nan nan nan nan nan nan nan nan nan nan nan nan
nan nan nan nan nan nan nan nan nan nan nan nan nan nan nan nan nan nan nan nan nan nan nan nan nan nan nan nan nan nan nan nan nan nan nan nan nan nan nan nan nan nan nan nan nan nan nan nan nan nan nan nan nan nan nan nan nan nan nan nan nan nan nan nan nan nan nan nan nan nan nan nan nan nan nan nan nan nan nan nan nan nan nan nan nan nan
nan nan nan nan nan nan nan nan nan nan nan nan nan nan nan nan nan nan nan nan nan nan nan nan nan nan nan nan nan nan nan nan nan nan nan nan nan nan nan nan nan nan nan nan nan nan nan nan nan nan nan nan nan nan nan nan nan nan nan nan nan nan nan nan nan nan nan nan nan nan nan nan nan nan nan nan nan nan nan nan nan nan nan nan nan nan
nan nan nan nan nan nan nan nan nan nan nan nan nan nan nan nan nan nan nan nan nan nan nan nan nan nan nan nan nan nan nan nan nan nan nan nan nan nan nan nan nan nan nan nan nan nan nan nan nan nan nan nan nan nan nan nan nan nan nan nan nan nan nan nan nan nan nan nan nan nan nan nan nan nan nan nan nan nan nan nan nan nan nan nan nan nan
nan nan nan nan nan nan nan nan nan nan nan nan nan nan nan nan nan nan nan nan nan nan nan nan nan nan nan nan nan nan nan nan nan nan nan nan nan nan nan nan nan nan nan nan nan nan nan nan nan nan nan nan nan nan nan nan nan nan nan nan nan nan nan nan nan nan nan nan nan nan nan nan nan nan nan nan nan nan nan nan nan nan nan nan nan nan
nan nan nan nan nan nan nan nan nan nan nan nan nan nan nan nan nan nan nan nan nan nan nan nan nan nan nan nan nan nan nan nan nan nan nan nan nan nan nan nan nan nan nan nan nan nan nan nan nan nan nan nan nan nan nan nan nan nan nan nan nan nan nan nan nan nan nan nan nan nan nan nan nan nan nan nan nan nan nan nan nan nan nan nan nan nan
nan nan nan nan nan nan nan nan nan nan nan nan nan nan nan nan nan nan nan nan nan nan nan nan nan nan nan nan nan nan nan nan nan nan nan nan nan nan nan nan nan nan nan nan nan nan nan nan nan nan nan nan nan nan nan nan nan nan nan nan nan nan nan nan nan nan nan nan nan nan nan nan nan nan nan nan nan nan nan nan nan nan nan nan nan nan
nan nan nan nan nan nan nan nan nan nan nan nan nan nan nan nan nan nan nan nan nan nan nan nan nan nan nan nan nan nan nan nan nan nan nan nan nan nan nan nan nan nan nan nan nan nan nan nan nan nan nan nan nan nan nan nan nan nan nan nan nan nan nan nan nan nan nan nan nan nan nan nan nan nan nan nan nan nan nan nan nan nan nan nan nan nan
nan nan nan nan nan nan nan nan nan nan nan nan nan nan nan nan nan nan nan nan nan nan nan nan nan nan nan nan nan nan nan nan nan nan nan nan nan nan nan nan nan nan nan nan nan nan nan nan nan nan nan nan nan nan nan nan nan nan nan nan nan nan nan nan nan nan nan nan nan nan nan nan nan nan nan nan nan nan nan nan nan nan nan nan nan nan
nan nan nan nan nan nan nan nan nan nan nan nan nan nan nan nan nan nan nan nan nan nan nan nan nan nan nan nan nan nan nan nan nan nan nan nan nan nan nan nan nan nan nan nan nan nan nan nan nan nan nan nan nan nan nan nan nan nan nan nan nan nan nan nan nan nan nan nan nan nan nan nan nan nan nan nan nan nan nan nan nan nan nan nan nan nan